Location: Ab? ar R?sh Ba?r?
(24.1861°N, 32.8847°E)
Time: 22:55:25
(UTC+00:00)

DELTA 2 R/B (1) - Pass Details

Date: 24 October 2021
Orbit: 791 x 802 km, 39.6° (Epoch: 04 December)

Event Time Altitude Azimuth Distance (km) Brightness Sun altitude
Rises 16:17:50 0° 219° (SW) 3,290 7.5 -15.1°
Reaches altitude 10° 16:20:24 10° 214° (SSW) 2,360 6.6 -15.7°
Maximum altitude 16:25:43 47° 141° (SE) 1,048 3.9 -16.9°
Enters shadow 16:28:05 29° 87° (E) 1,411 4.3 -17.4°
